{"data":{"norad_id":64624,"epoch":"2026-09-21T23:01:56.548128Z","epoch_age_seconds":51469,"freshness":"FRESH","line1":"1 64624U 25138D   26264.95968227  .00006021  00000+0  24736-3 0  9992","line2":"2 64624  97.4460 268.3939 0014131 139.2192 221.0106 15.24475171 68688","mean_motion":15.24475171,"eccentricity":0.0014131,"inclination_deg":97.446,"raan_deg":268.3939,"arg_perigee_deg":139.2192,"mean_anomaly_deg":221.0106,"bstar":0.00024736,"rev_number":6868,"period_min":94.458737498192,"perigee_km":482.6531444711,"apogee_km":502.07054831077,"semimajor_km":6870.4988463909,"source":"CELESTRAK","updated_at":"2026-09-22T09:00:29.889064Z"}}